Location: Hurecourt
(47.9030°N, 6.0653°E)
Time: 20:55:13
(UTC+00:00)

Cosmos 1802 Rocket - Pass Details

Date: 14 July 2020
Orbit: 954 x 1012 km, 82.9° (Epoch: 14 August)

Event Time Altitude Azimuth Distance (km) Brightness Sun altitude
Exits shadow 01:03:01 25° 173° (S) 1,905 5.0 -18.1°
Maximum altitude 01:06:56 71° 95° (E) 1,064 4.2 -17.9°
Drops below altitude 10° 01:13:21 10° 13° (NNE) 2,804 7.7 -17.5°
Sets 01:15:54 0° 11° (N) 3,759 8.7 -17.3°
